Temperature
20 21 21 21 21 21 20 18 18 18 18 18 17 17 18 18 18 18 18 18 18 18 18 18 18 18 17 17 17 17 17 16 16 16 16 16 15 15 15 15 15 14 14 14
20 21 21 21 21 21 20 20 19 18 18 18 18 18 18 18 18 18 18 18 18 18 18 18 18 17 17 17 17 17 16 16 16 16 16 15 15 15 15 15 15 14 14 14
18 20 21 20 21 20 20 20 19 18 17 17 17 17 17 18 18 18 18 18 18 18 18 17 17 17 17 17 17 16 16 16 16 15 15 15 15 15 15 14 14 14 14 14
17 19 20 19 20 20 20 19 19 18 17 17 18 18 18 18 18 18 18 18 18 17 17 17 17 17 17 16 16 16 16 15 15 15 15 15 15 14 14 14 14 14 14 14
16 18 18 20 20 20 19 18 18 18 17 17 18 17 17 18 18 18 18 18 17 17 17 17 17 16 16 16 15 15 15 15 15 15 15 14 14 14 14 14 14 14 13 13
16 18 18 19 20 20 19 17 18 18 17 17 17 15 15 17 18 18 17 17 17 17 16 16 16 16 16 15 15 15 14 14 14 14 14 14 14 14 13 13 13 13 13 13
16 17 17 18 19 20 18 17 18 18 18 18 17 16 17 17 17 17 17 17 17 16 16 16 15 15 15 15 14 14 14 14 14 14 13 13 13 13 13 13 13 13 13 13
15 16 17 18 19 18 17 18 18 18 18 18 18 17 17 17 17 17 16 16 16 16 15 15 15 15 14 14 14 14 13 13 13 13 13 13 13 13 13 12 12 12 12 12
15 15 16 17 18 19 19 18 18 18 18 18 17 17 17 16 16 16 16 16 15 15 15 14 14 14 14 13 13 13 13 13 13 13 12 12 12 12 12 12 12 12 12 12
14 15 16 17 18 19 19 19 18 18 18 18 17 16 16 16 16 15 15 15 15 14 14 14 13 13 13 13 13 12 12 12 12 12 12 12 12 12 11 11 11 11 11 11
13 14 15 16 17 18 18 18 17 17 17 17 16 16 15 15 15 15 14 14 14 14 13 13 13 12 12 12 12 12 12 12 11 11 11 11 11 11 11 11 10 10 10 10
14 15 14 15 16 17 17 17 17 16 16 16 16 15 15 15 14 14 14 13 13 13 13 12 12 12 12 12 11 11 11 11 11 11 11 11 10 10 10 10 10 10 10 10
17 17 17 16 16 17 17 16 16 16 15 15 15 15 14 14 13 13 13 13 12 12 12 12 12 11 11 11 11 11 11 10 10 10 10 10 10 10 10 10 10 10 9 9
17 17 15 15 15 16 16 15 15 15 15 14 14 14 13 13 13 12 12 12 12 11 11 11 11 11 11 10 10 10 10 10 10 9 9 9 9 9 9 9 9 9 9 9
16 16 16 15 15 15 15 14 14 14 13 13 13 13 13 12 12 12 11 11 11 11 11 10 10 10 10 10 10 10 9 9 9 9 9 8 8 8 8 8 8 8 8 8
15 15 15 14 14 14 14 14 13 13 13 12 12 12 12 12 11 11 11 11 11 10 10 10 10 9 9 9 9 9 9 8 8 8 8 8 8 7 7 7 7 7 7 7
14 13 14 13 13 13 13 13 13 12 12 12 12 11 11 11 11 10 10 10 10 10 9 9 9 9 9 8 8 8 8 8 8 7 7 7 7 7 7 7 6 6 6 7
15 14 14 14 13 13 12 12 12 12 12 11 11 11 11 10 10 10 10 9 9 9 9 9 9 8 8 8 8 8 7 7 7 7 7 6 6 6 6 6 6 6 6 6
13 13 13 13 13 12 12 12 12 11 11 11 11 10 10 10 10 9 9 9 9 9 8 8 8 8 8 8 7 7 7 7 6 6 6 6 6 6 6 5 5 5 5 5
12 12 12 12 12 12 11 11 11 11 10 10 10 10 9 9 9 9 9 8 8 8 8 8 7 7 7 7 7 6 6 6 6 6 6 5 5 5 5 5 5 5 5 5
12 12 11 11 11 11 11 10 10 10 10 10 9 9 9 9 8 8 8 8 8 7 7 7 7 7 6 6 6 6 6 5 5 5 5 5 5 5 5 5 5 4 4 4
11 11 11 10 10 10 10 10 10 10 9 9 9 9 8 8 8 8 8 7 7 7 7 6 6 6 6 6 5 5 5 5 5 5 5 4 4 4 4 4 4 4 4 4
10 10 10 10 10 10 9 9 9 9 9 9 8 8 8 8 7 7 7 7 7 6 6 6 6 5 5 5 5 5 5 4 4 4 4 4 4 4 4 4 4 4 4 4
10 10 10 9 9 9 9 9 9 8 8 8 8 8 7 7 7 7 6 6 6 6 5 5 5 5 5 5 4 4 4 4 4 4 4 4 4 4 3 3 3 3 3 3
9 9 9 9 9 9 8 8 8 8 8 7 7 7 7 7 6 6 6 6 5 5 5 5 5 4 4 4 4 4 4 4 3 3 3 3 3 3 3 3 3 3 3 3
9 9 9 8 8 8 8 8 8 7 7 7 7 7 6 6 6 5 5 5 5 4 4 4 4 4 4 4 4 3 3 3 3 3 3 3 3 3 3 3 3 3 3 3
8 8 8 8 8 8 7 7 7 7 7 7 6 6 6 5 5 5 5 4 4 4 4 4 4 4 3 3 3 3 3 3 3 3 3 3 3 2 2 2 2 2 2 2
Wind_Speed
4 4 3 3 4 5 5 8 7 8 9 10 10 10 9 8 8 7 6 5 4 3 2 1 1 1 1 0 1 2 2 1 1 1 1 1 1 2 1 1 2 2 1 2
2 1 2 1 2 4 4 5 7 9 5 5 7 7 7 8 9 8 6 5 4 3 3 2 1 1 1 1 1 2 2 1 0 1 1 1 2 2 2 2 3 2 2 2
1 3 3 2 4 5 5 6 10 8 7 9 9 9 10 9 9 8 6 5 4 3 2 1 1 2 2 1 2 2 1 0 1 1 1 2 2 2 2 3 3 3 3 3
1 3 1 6 3 6 7 3 5 7 9 12 11 8 6 7 9 7 6 5 4 3 2 1 2 2 2 3 3 2 2 1 1 1 1 2 2 2 3 3 3 3 4 4
3 2 2 4 1 4 7 1 4 9 10 10 11 9 4 2 6 7 6 5 4 3 3 3 3 2 4 3 3 2 2 2 2 1 1 1 2 3 3 2 3 4 4 4
4 4 5 6 4 2 8 2 3 9 13 11 9 6 4 3 5 6 5 5 4 4 4 4 2 3 5 4 3 2 2 2 2 1 1 2 3 3 2 2 3 4 4 4
4 3 5 5 3 4 5 7 6 9 12 10 7 7 6 6 6 6 5 5 5 5 4 2 2 4 4 3 2 3 2 2 2 2 2 2 2 2 2 2 3 4 4 5
5 4 6 3 3 6 6 4 7 8 8 8 8 8 8 7 7 6 6 5 5 5 3 2 3 4 3 2 3 2 2 2 3 3 3 3 2 3 3 2 3 4 4 6
6 5 4 2 3 4 6 8 6 7 8 11 10 8 7 6 6 5 5 4 4 4 3 3 2 3 2 2 2 2 3 3 3 3 3 2 2 3 3 3 3 4 4 5
3 0 1 3 5 6 7 8 8 9 10 10 9 8 7 6 5 4 3 4 3 4 3 2 2 1 0 2 1 2 2 3 3 3 4 4 3 2 3 3 4 4 5 6
3 2 4 3 5 8 10 11 11 10 9 9 10 8 6 5 4 4 3 2 3 3 2 0 1 1 2 1 1 2 2 3 3 3 4 4 4 4 4 5 5 5 5 5
6 8 6 5 4 8 11 10 10 10 8 7 7 7 6 5 4 4 3 3 3 2 1 0 1 2 3 2 1 1 2 3 3 3 4 4 4 6 7 7 10 11 10 8
6 6 6 6 6 7 9 9 9 9 9 8 6 7 7 5 3 3 3 3 2 2 1 0 1 2 3 2 1 1 2 3 3 3 4 4 4 5 7 8 9 10 11 11
7 8 7 5 6 7 9 9 9 8 7 7 6 6 6 4 3 3 2 2 2 1 1 0 1 3 4 2 1 2 2 3 3 3 4 5 5 5 5 6 8 7 8 11
6 6 8 8 8 8 9 9 9 7 6 5 5 5 5 4 3 1 1 1 1 1 0 1 1 4 4 2 1 2 3 3 3 4 4 5 5 5 5 6 7 7 7 8
7 9 10 10 10 8 8 9 8 6 5 4 4 4 4 4 3 1 1 1 1 1 2 2 3 4 3 2 2 2 3 6 6 4 4 5 5 5 6 6 7 7 7 7
9 8 8 9 8 8 7 7 7 6 5 5 4 4 3 3 2 1 1 1 1 2 2 2 4 4 4 3 3 3 3 5 8 6 4 5 5 6 6 7 7 7 8 9
9 9 10 11 10 8 7 6 6 6 5 4 4 4 3 3 2 2 3 2 2 3 3 4 4 4 4 4 3 3 3 4 4 5 5 6 6 6 6 7 8 9 8 9
7 8 8 8 8 8 7 6 6 5 4 4 4 3 3 3 3 3 3 2 2 4 5 5 6 4 4 5 4 3 4 5 5 6 6 8 8 6 7 7 8 8 8 8
6 7 7 6 6 6 6 5 5 4 3 3 3 2 2 2 3 3 3 3 4 5 6 6 5 4 5 5 6 3 4 6 6 7 7 6 7 8 8 8 8 8 8 8
6 6 6 5 5 4 5 5 5 4 3 3 4 4 4 4 3 3 2 4 6 6 5 7 4 4 5 6 7 4 5 6 7 7 7 7 8 8 8 8 8 8 9 9
5 5 5 4 4 3 3 4 4 4 3 3 3 3 3 3 3 3 4 5 6 7 4 4 4 7 9 9 5 5 6 7 7 7 7 8 8 8 9 9 9 9 9 9
5 4 5 4 4 4 2 3 3 4 4 4 4 4 4 4 3 3 5 5 4 7 5 5 8 13 14 7 5 6 7 8 8 8 8 8 8 9 9 10 9 9 9 9
4 4 4 4 3 3 2 3 3 3 4 4 4 4 4 3 3 4 4 6 7 8 5 7 12 14 12 5 5 6 7 8 8 8 9 9 9 9 9 9 10 10 10 11
4 4 3 4 3 3 4 3 2 2 2 2 3 4 4 3 4 4 4 5 8 8 6 9 13 14 8 6 6 7 7 8 9 9 8 8 9 9 9 9 10 10 9 9
3 3 4 4 4 4 4 3 3 3 3 3 3 3 3 3 4 4 4 5 7 9 7 6 7 9 6 7 7 8 8 9 10 9 9 9 10 10 10 10 11 10 10 10
2 2 2 1 2 3 3 3 4 4 4 4 4 4 4 3 3 4 5 5 6 6 6 6 6 6 7 7 7 8 8 8 8 9 9 9 9 9 10 11 10 9 9 9
Wind_Direction
223 221 172 185 193 173 155 162 161 176 170 187 174 162 160 149 136 125 120 117 123 136 134 114 105 123 151 126 96 110 105 102 252 268 269 289 276 262 272 281 282 277 308 317
348 313 112 124 178 159 151 142 139 136 169 186 152 130 132 139 134 128 128 126 128 127 118 104 127 148 114 92 103 102 106 118 352 29 16 331 298 284 296 296 294 299 295 294
265 311 53 306 228 168 148 147 146 162 184 150 139 149 158 152 141 141 142 137 128 126 129 138 146 136 133 154 111 96 94 32 14 25 341 316 330 333 301 291 296 297 289 284
125 52 182 253 266 149 135 139 147 146 153 157 154 150 144 149 144 143 138 130 126 119 105 85 79 93 95 86 85 78 52 1 339 343 316 318 334 312 296 295 288 283 284 277
122 138 278 296 274 149 134 135 150 142 144 137 122 93 63 140 143 147 144 138 135 131 115 85 67 87 85 68 61 53 12 331 311 285 307 327 315 302 290 297 297 285 280 278
126 150 214 240 270 144 107 131 225 146 145 143 126 131 203 181 131 123 119 119 115 105 87 77 55 77 78 64 50 13 313 298 304 310 283 276 274 281 292 286 287 297 292 284
149 184 249 255 253 111 137 211 197 159 152 150 155 170 165 138 117 117 112 109 104 97 89 83 72 81 73 48 357 302 308 335 345 327 297 282 287 292 299 299 309 312 306 300
146 169 240 262 130 162 196 159 147 145 143 133 125 119 122 124 121 116 107 98 99 95 80 54 67 84 70 4 312 329 357 2 345 331 325 339 321 309 305 297 302 303 304 307
172 200 250 242 160 148 134 125 123 125 127 126 120 122 124 127 127 121 114 107 100 103 84 44 41 84 81 311 321 6 18 357 338 335 332 333 321 310 314 311 301 298 298 298
105 347 34 82 92 94 107 112 115 121 123 122 122 126 126 126 128 124 114 110 106 101 88 37 6 36 345 303 344 37 10 339 333 331 322 321 315 306 303 297 295 298 297 293
115 158 88 58 104 113 103 102 104 104 108 117 120 122 124 124 129 134 125 112 113 116 116 55 351 351 335 337 34 27 344 326 326 323 313 310 306 288 281 269 265 273 273 273
192 198 163 178 165 126 116 116 119 112 98 101 114 121 115 116 122 124 124 118 110 105 106 17 355 338 328 329 26 23 329 319 314 313 311 309 309 311 297 287 293 287 278 278
171 159 145 143 136 122 121 122 119 116 117 112 108 117 117 116 112 107 107 115 136 154 165 236 344 326 316 312 331 313 292 299 304 308 307 305 304 304 308 311 306 300 291 288
129 117 114 131 137 126 120 117 111 106 108 113 115 113 111 108 103 102 122 170 170 157 163 270 314 303 300 307 316 300 298 306 310 297 298 297 296 294 292 298 308 306 298 292
124 128 140 134 121 118 118 116 110 107 104 101 108 112 114 115 121 141 183 178 133 106 311 315 306 297 301 307 304 300 298 292 294 295 297 297 297 298 297 295 294 297 302 304
118 114 122 126 129 128 124 124 124 128 125 120 119 127 136 141 141 127 63 53 95 278 277 281 284 286 291 293 297 301 297 308 314 302 300 302 302 302 300 298 297 298 298 296
130 136 138 140 142 141 142 144 146 147 142 141 149 147 135 121 105 67 319 307 266 258 265 264 272 281 282 273 270 278 285 301 314 313 298 295 296 295 294 293 293 293 291 290
156 158 157 155 155 152 150 147 147 148 153 162 154 142 141 150 184 233 262 285 311 315 298 280 276 281 284 280 270 266 273 280 286 288 288 290 291 289 289 291 293 293 295 297
133 139 140 145 150 150 152 153 155 157 158 154 151 165 185 202 218 236 248 260 274 282 282 280 289 290 284 284 288 270 276 284 288 288 287 291 295 291 290 290 290 291 292 294
121 126 129 131 134 140 149 157 157 157 165 160 156 170 208 239 240 246 254 255 250 249 260 276 281 276 274 278 290 274 277 282 286 288 287 284 285 286 286 285 286 288 290 288
130 127 126 130 137 146 157 161 161 173 185 179 183 202 221 242 249 243 247 274 277 270 273 285 284 272 273 281 291 279 276 279 281 281 282 282 283 284 284 283 284 286 287 287
141 143 146 147 149 160 175 173 175 181 187 196 207 211 219 247 261 261 250 246 262 278 280 272 272 280 288 293 281 275 275 277 279 280 280 279 279 280 281 280 281 283 283 282
157 161 164 167 169 177 182 185 187 186 194 204 210 216 222 231 231 235 270 270 266 281 283 270 283 293 298 296 278 274 277 279 280 279 278 277 276 276 278 279 280 282 283 282
164 171 176 176 157 153 187 220 212 206 208 214 218 216 214 232 261 252 246 275 287 288 279 280 293 301 304 292 280 278 277 278 278 278 279 278 277 277 278 278 280 281 281 281
168 173 172 167 174 194 206 209 207 215 211 225 241 241 234 222 235 259 263 268 283 290 282 289 300 305 302 284 281 281 280 278 281 282 277 279 279 279 279 279 280 281 282 282
172 180 191 195 196 198 197 192 198 214 216 234 256 258 259 257 252 257 264 269 274 288 285 280 286 292 286 282 281 282 281 288 291 289 284 283 280 279 280 279 279 279 280 281
166 170 171 188 211 200 195 195 204 217 219 220 244 258 256 257 261 266 271 275 278 279 279 281 282 282 283 283 284 284 284 285 285 284 284 283 282 281 280 279 280 280 280 281
Height
1495 1491 1491 1492 1493 1494 1499 1506 1515 1514 1515 1512 1511 1511 1513 1515 1517 1519 1521 1523 1524 1525 1526 1527 1527 1527 1528 1528 1528 1528 1528 1527 1527 1527 1527 1527 1526 1525 1524 1524 1523 1522 1521 1520
1497 1491 1491 1494 1492 1493 1495 1498 1504 1508 1512 1507 1509 1511 1514 1516 1517 1519 1521 1523 1524 1525 1526 1526 1526 1527 1527 1527 1527 1527 1527 1526 1526 1525 1525 1524 1524 1523 1523 1522 1521 1520 1519 1518
1507 1497 1494 1503 1494 1493 1496 1495 1500 1508 1508 1506 1510 1511 1513 1515 1517 1519 1520 1522 1523 1524 1525 1526 1526 1526 1526 1526 1526 1526 1526 1525 1524 1524 1523 1522 1522 1521 1520 1519 1519 1518 1517 1515
1508 1504 1514 1503 1487 1487 1492 1495 1495 1497 1501 1503 1506 1510 1513 1515 1516 1518 1520 1521 1523 1524 1525 1525 1526 1526 1526 1526 1525 1525 1524 1523 1523 1522 1521 1520 1519 1519 1518 1517 1516 1515 1514 1513
1512 1514 1509 1497 1489 1489 1494 1500 1496 1497 1500 1504 1507 1511 1515 1516 1517 1518 1520 1521 1523 1524 1524 1525 1525 1525 1525 1525 1524 1523 1523 1522 1521 1520 1519 1518 1517 1516 1515 1514 1513 1512 1511 1510
1511 1513 1515 1499 1488 1486 1492 1505 1497 1496 1499 1503 1505 1515 1517 1516 1517 1518 1520 1521 1522 1523 1524 1524 1524 1524 1524 1523 1523 1522 1521 1520 1519 1518 1517 1516 1515 1514 1513 1512 1511 1510 1508 1507
1508 1510 1504 1490 1486 1487 1504 1503 1496 1496 1497 1501 1503 1507 1511 1514 1516 1518 1519 1521 1522 1522 1523 1523 1523 1523 1522 1521 1521 1520 1519 1518 1517 1516 1515 1514 1513 1512 1510 1509 1508 1506 1505 1504
1507 1510 1506 1486 1486 1491 1492 1489 1492 1495 1497 1500 1503 1507 1510 1513 1515 1517 1519 1520 1521 1521 1522 1522 1522 1521 1521 1520 1519 1518 1517 1516 1515 1514 1513 1511 1510 1509 1507 1506 1504 1502 1501 1499
1495 1497 1488 1485 1484 1485 1486 1489 1492 1495 1498 1500 1503 1507 1510 1512 1515 1517 1518 1519 1520 1520 1520 1521 1520 1520 1519 1518 1517 1516 1515 1514 1512 1511 1510 1509 1507 1505 1504 1502 1500 1498 1497 1495
1491 1490 1487 1486 1485 1486 1488 1489 1492 1495 1498 1501 1504 1507 1509 1512 1514 1515 1517 1518 1518 1519 1519 1519 1519 1518 1517 1516 1515 1514 1513 1511 1510 1508 1507 1505 1504 1502 1501 1499 1497 1495 1493 1491
1491 1489 1488 1488 1487 1488 1490 1492 1495 1497 1500 1502 1504 1507 1509 1511 1513 1514 1515 1516 1517 1517 1517 1517 1517 1516 1515 1514 1513 1511 1510 1508 1507 1505 1503 1502 1500 1499 1497 1496 1494 1492 1490 1487
1487 1484 1485 1488 1488 1489 1491 1493 1496 1498 1501 1503 1504 1506 1508 1510 1512 1513 1514 1515 1515 1515 1515 1515 1514 1513 1512 1511 1510 1508 1507 1505 1503 1502 1500 1498 1496 1494 1492 1491 1489 1487 1485 1484
1477 1480 1483 1486 1488 1490 1492 1494 1497 1499 1501 1503 1505 1506 1508 1509 1511 1512 1513 1513 1513 1513 1513 1512 1511 1510 1509 1508 1507 1505 1503 1502 1500 1498 1496 1494 1491 1489 1486 1485 1483 1482 1480 1478
1476 1479 1483 1486 1488 1490 1492 1495 1497 1499 1501 1503 1505 1506 1507 1509 1510 1510 1511 1511 1511 1511 1510 1510 1509 1508 1506 1505 1503 1501 1500 1498 1496 1494 1492 1489 1487 1484 1482 1479 1476 1474 1473 1471
1477 1478 1481 1484 1487 1490 1492 1494 1496 1499 1501 1503 1504 1506 1507 1507 1508 1509 1509 1509 1509 1508 1507 1507 1506 1504 1503 1501 1500 1498 1496 1494 1491 1489 1487 1484 1482 1479 1477 1474 1471 1468 1466 1464
1477 1479 1481 1484 1486 1489 1491 1493 1495 1498 1500 1502 1503 1504 1505 1506 1506 1507 1507 1506 1506 1505 1504 1503 1502 1501 1500 1498 1496 1494 1492 1490 1487 1484 1482 1479 1477 1474 1471 1469 1466 1463 1460 1458
1475 1478 1480 1483 1485 1488 1490 1492 1494 1496 1498 1500 1502 1503 1503 1504 1504 1504 1504 1504 1503 1502 1501 1500 1499 1497 1496 1494 1492 1490 1487 1485 1482 1480 1477 1474 1472 1469 1466 1463 1460 1457 1454 1452
1474 1476 1478 1481 1483 1486 1489 1491 1493 1495 1497 1498 1500 1500 1501 1501 1501 1501 1501 1500 1500 1499 1498 1496 1495 1493 1491 1489 1487 1485 1482 1480 1477 1474 1472 1469 1466 1463 1460 1457 1454 1451 1447 1445
1473 1476 1478 1480 1483 1485 1487 1489 1491 1493 1495 1496 1497 1497 1498 1498 1498 1498 1497 1497 1496 1494 1493 1492 1490 1489 1487 1485 1482 1480 1477 1474 1472 1469 1466 1463 1460 1457 1454 1451 1448 1444 1441 1438
1472 1475 1477 1479 1482 1484 1486 1488 1490 1491 1493 1493 1494 1494 1495 1495 1495 1494 1493 1492 1492 1490 1489 1487 1485 1483 1481 1479 1477 1474 1472 1469 1466 1463 1460 1457 1454 1451 1448 1445 1442 1438 1435 1431
1471 1474 1476 1478 1480 1482 1484 1486 1487 1488 1490 1490 1491 1491 1491 1491 1491 1490 1489 1488 1487 1486 1484 1482 1480 1478 1476 1474 1471 1469 1466 1463 1460 1457 1454 1451 1448 1445 1442 1438 1435 1431 1428 1424
1470 1472 1474 1476 1478 1480 1482 1483 1484 1485 1486 1487 1487 1487 1487 1486 1486 1485 1484 1483 1482 1480 1478 1477 1475 1473 1470 1468 1465 1463 1460 1457 1454 1450 1447 1444 1441 1438 1434 1431 1428 1424 1421 1417
1468 1471 1472 1474 1476 1477 1479 1480 1481 1482 1482 1483 1483 1483 1482 1482 1481 1480 1479 1478 1476 1475 1473 1471 1469 1467 1464 1461 1459 1456 1453 1450 1447 1443 1440 1437 1434 1431 1427 1424 1420 1417 1413 1410
1466 1468 1470 1472 1473 1475 1476 1477 1478 1478 1479 1479 1479 1479 1478 1477 1476 1476 1474 1473 1471 1469 1467 1465 1462 1460 1458 1455 1452 1449 1446 1443 1439 1436 1433 1430 1426 1423 1420 1416 1413 1409 1406 1402
1464 1466 1467 1469 1470 1471 1472 1473 1474 1474 1474 1474 1474 1474 1474 1473 1472 1470 1469 1467 1465 1463 1461 1458 1456 1454 1451 1448 1445 1442 1439 1436 1432 1429 1425 1422 1419 1415 1412 1408 1405 1401 1397 1394
1461 1463 1464 1466 1467 1468 1469 1469 1470 1470 1470 1470 1469 1469 1469 1468 1467 1465 1463 1461 1459 1457 1455 1452 1450 1447 1444 1441 1438 1435 1431 1428 1425 1421 1418 1414 1411 1407 1404 1400 1396 1393 1389 1386
1459 1460 1461 1462 1463 1464 1465 1465 1466 1466 1465 1465 1464 1464 1463 1462 1461 1459 1458 1456 1453 1451 1449 1446 1443 1441 1438 1434 1431 1428 1424 1421 1417 1414 1410 1407 1403 1399 1396 1392 1388 1385 1381 1378